Location: ?
(35.4214°N, 139.3011°E)
Time: 21:22:47
(UTC+00:00)

Meteor 2-17 Rocket - Pass Details

Date: 26 October 2020
Orbit: 935 x 956 km, 82.5° (Epoch: 04 December)

Event Time Altitude Azimuth Distance (km) Brightness Sun altitude
Rises 10:55:20 0° 352° (N) 3,599 7.7 -37.4°
Reaches altitude 10° 10:57:49 10° 352° (N) 2,650 6.9 -37.9°
Enters shadow 10:58:09 12° 352° (N) 2,527 6.8 -38.0°
